Date,TemperatureHighF,TemperatureAvgF,TemperatureLowF,DewpointHighF,DewpointAvgF,DewpointLowF,HumidityHigh,HumidityAvg,HumidityLow,PressureMaxIn,PressureMinIn,WindSpeedMaxMPH,WindSpeedAvgMPH,GustSpeedMaxMPH,PrecipitationSumIn
2012-10-24,68.0,66.2,62.0,67.0,64.5,62.0,100,94,89,29.82,29.64,4,0,7,0.00
2012-10-25,67.0,57.3,39.0,64.0,53.0,31.0,91,86,73,29.97,29.48,9,2,16,0.00
2012-10-26,46.0,39.5,34.0,33.0,28.3,25.0,78,65,52,30.24,29.97,5,2,12,0.00
2012-10-27,47.0,38.9,33.0,27.0,23.1,18.0,73,55,33,30.27,30.20,3,0,8,0.00
2012-10-28,50.0,38.0,30.0,24.0,22.9,21.0,71,56,35,30.29,30.22,1,0,4,0.00
2012-10-29,51.0,38.7,28.0,29.0,23.3,20.0,71,56,34,30.28,30.12,1,0,3,0.00
2012-10-30,46.0,38.4,34.0,27.0,23.4,19.0,72,56,34,30.12,29.83,5,1,7,0.00
2012-10-31,49.0,38.3,32.0,35.0,22.8,16.0,100,55,35,29.83,29.77,6,1,11,0.00
2012-11-1,49.0,41.1,34.0,33.0,24.8,16.0,65,52,42,29.88,29.75,7,1,8,0.00
2012-11-2,48.0,38.1,30.0,29.0,24.7,22.0,73,60,42,30.08,29.88,1,0,3,0.00
2012-11-3,45.0,37.1,32.0,28.0,25.0,22.0,69,61,52,30.17,30.10,3,0,4,0.00
2012-11-4,48.0,35.6,27.0,30.0,23.9,19.0,75,63,45,30.17,30.09,1,0,3,0.00
2012-11-5,43.0,34.4,27.0,29.0,23.7,19.0,76,65,53,30.16,29.98,2,0,3,0.00
2012-11-6,38.0,35.6,30.0,35.0,31.0,22.0,91,83,72,29.99,29.73,4,1,7,0.00
2012-11-7,43.0,38.5,36.0,37.0,33.7,32.0,87,83,76,30.05,29.83,2,0,3,0.00
2012-11-8,50.0,42.5,38.0,37.0,34.3,33.0,83,73,59,30.04,29.91,6,1,9,0.00
2012-11-9,46.0,42.0,37.0,40.0,35.8,31.0,82,78,72,30.01,29.95,3,0,5,0.00
2012-11-10,59.0,48.3,41.0,54.0,43.9,36.0,88,84,79,29.98,29.63,4,1,6,0.00
2012-11-11,59.0,52.0,34.0,53.0,46.1,26.0,91,80,68,29.78,29.57,6,2,12,0.00
2012-11-12,33.0,28.8,27.0,26.0,18.8,16.0,76,66,56,30.14,29.78,0,0,0,0.00
2012-11-13,40.0,31.7,25.0,23.0,19.8,16.0,72,62,46,30.32,30.14,3,0,6,0.00
2012-11-14,48.0,39.2,33.0,32.0,26.1,-99.9,72,61,49,30.30,30.18,6,2,8,0.00
2012-11-15,53.0,42.0,36.0,33.0,30.0,27.0,73,63,43,30.28,30.12,4,1,8,0.00
2012-11-16,44.0,37.1,30.0,33.0,27.2,21.0,80,68,58,30.40,30.26,3,0,5,0.00
2012-11-17,52.0,42.7,37.0,39.0,34.4,32.0,83,73,58,30.37,30.29,4,1,7,0.00
2012-11-18,56.0,46.2,39.0,36.0,32.4,31.0,75,60,41,30.29,30.16,7,1,12,0.00
2012-11-19,50.0,46.8,41.0,49.0,36.5,31.0,100,67,59,30.16,29.98,4,0,5,0.00
2012-11-20,58.0,45.9,37.0,42.0,36.5,30.0,80,70,53,30.06,29.98,3,0,5,0.00
2012-11-21,58.0,47.4,35.0,42.0,38.0,29.0,87,71,52,30.05,29.83,4,2,8,0.00
2012-11-22,62.0,49.7,37.0,44.0,38.8,27.0,81,67,51,29.83,29.55,12,3,17,0.00
2012-11-23,37.0,29.2,26.0,27.0,18.5,13.0,72,64,59,30.11,29.69,13,4,20,0.00
2012-11-24,35.0,27.9,24.0,17.0,13.7,12.0,63,55,44,30.12,29.77,4,1,7,0.00
2012-11-25,38.0,31.9,29.0,25.0,20.8,14.0,75,64,53,29.97,29.70,6,1,11,0.00
2012-11-26,30.0,25.5,17.0,20.0,12.1,6.0,69,57,44,30.25,29.97,6,1,8,0.00
2012-11-27,33.0,26.1,16.0,18.0,12.4,5.0,67,56,45,30.24,30.03,5,1,7,0.00
2012-11-28,38.0,31.0,24.0,21.0,18.8,14.0,72,60,49,30.21,30.05,4,1,6,0.00
2012-11-29,44.0,34.8,30.0,28.0,24.3,21.0,78,66,52,30.07,30.00,2,0,5,0.00
2012-11-30,35.0,31.7,29.0,30.0,26.2,23.0,82,80,77,30.11,30.03,4,1,6,0.00
2012-12-1,47.0,40.6,35.0,43.0,35.7,29.0,90,83,76,30.08,29.72,3,1,4,0.00
2012-12-2,47.0,42.5,40.0,44.0,38.1,35.0,90,84,80,29.95,29.74,4,0,5,0.00
2012-12-3,58.0,48.3,40.0,58.0,45.5,36.0,99,90,79,29.92,29.56,9,2,10,0.00
2012-12-4,46.0,37.9,26.0,38.0,25.2,11.0,80,61,46,30.23,29.80,7,2,13,0.00
2012-12-5,34.0,28.7,22.0,24.0,16.3,12.0,72,59,49,30.32,30.04,5,1,6,0.00
2012-12-6,43.0,36.8,32.0,35.0,27.2,-99.9,78,71,67,30.04,29.72,8,2,9,0.00
2012-12-7,39.0,34.8,32.0,28.0,24.1,22.0,72,64,56,29.92,29.81,3,0,5,0.00
2012-12-8,40.0,32.6,29.0,25.0,21.3,18.0,75,63,48,30.03,29.89,2,0,2,0.00
2012-12-9,33.0,31.6,30.0,27.0,24.0,20.0,80,74,66,30.03,29.64,2,0,4,0.00
2012-12-10,35.0,29.2,25.0,24.0,21.5,17.0,79,73,63,29.80,29.64,1,0,3,0.00
2012-12-11,28.0,25.0,22.0,25.0,16.9,15.0,100,71,64,29.93,29.75,5,1,8,0.00
2012-12-12,39.0,31.9,18.0,28.0,21.6,10.0,73,66,58,30.02,29.91,11,2,11,0.00
2012-12-13,46.0,35.5,27.0,27.0,21.7,18.0,69,58,44,30.01,29.91,5,1,7,0.00
2012-12-14,42.0,32.9,24.0,29.0,24.6,16.0,80,71,58,30.10,29.90,3,1,4,0.00
2012-12-15,41.0,38.4,35.0,36.0,32.6,29.0,82,80,78,29.90,29.43,4,1,6,0.00
2012-12-16,40.0,38.4,34.0,34.0,32.0,27.0,79,78,75,29.62,29.42,7,1,8,0.00
2012-12-17,34.0,30.3,28.0,28.0,21.9,19.0,77,71,67,29.65,29.60,5,1,9,0.00
2012-12-18,34.0,30.5,27.0,24.0,21.5,19.0,74,69,64,29.74,29.57,1,0,3,0.00
2012-12-19,35.0,32.0,27.0,29.0,23.9,20.0,100,72,68,29.95,29.71,1,0,3,0.00
2012-12-20,34.0,31.2,29.0,28.0,24.8,23.0,79,77,71,29.84,29.36,1,0,3,0.00
2012-12-21,31.0,24.9,17.0,23.0,15.9,7.0,75,68,62,30.07,29.54,6,2,9,0.00
2012-12-22,31.0,21.5,11.0,16.0,10.2,3.0,69,62,52,30.06,29.83,2,0,5,0.00
2012-12-23,33.0,23.6,19.0,18.0,13.1,9.0,76,64,51,29.95,29.83,4,1,5,0.00
2012-12-24,30.0,23.3,19.0,15.0,12.3,9.0,67,62,52,30.04,29.85,2,0,4,0.00
2012-12-25,30.0,19.4,12.0,14.0,7.8,3.0,67,60,48,30.27,30.04,4,0,4,0.00
2012-12-26,30.0,20.0,12.0,17.0,9.9,4.0,72,65,55,30.22,30.07,1,0,1,0.00
2012-12-27,30.0,24.8,22.0,16.0,13.6,12.0,70,63,53,30.14,30.04,1,0,2,0.00
2012-12-28,28.0,25.0,21.0,20.0,16.5,12.0,75,70,65,30.04,29.83,1,0,2,0.00
2012-12-29,32.0,26.2,22.0,22.0,17.6,13.0,75,69,63,30.01,29.80,3,0,7,0.00
2012-12-30,27.0,20.9,15.0,15.0,10.7,6.0,73,65,51,30.12,29.79,4,1,6,0.00
2012-12-31,26.0,20.9,10.0,17.0,10.3,-3.0,75,64,50,30.05,29.78,6,1,9,0.00
2013-1-1,20.0,11.3,1.0,6.0,-1.2,-9.0,62,57,44,30.10,29.96,5,1,7,0.00